Tracking 23762 objects as of 22-Oct-2021
HD Live streaming from Space Station
objects crossing your sky now

BREEZE-M DEB (TANK)

Track BREEZE-M DEB (TANK) now!
10-day predictions


NORAD ID: 40386
Int'l Code: 2015-005C
Perigee: 369.8 km
Apogee: 14,775.0 km
Inclination: 50.7 °
Period: 273.1 minutes
Semi major axis: 13943 km
RCS: Unknown
Launch date: February 1, 2015
Source: Commonwealth of Independent States (former USSR) (CIS)
Launch site: TYURATAM MISSILE AND SPACE COMPLEX (TTMTR)

Note: This is SATELLITE DEBRIS
aabbcc
Your satellite tracking list
Your tracking list is empty




NASA's NSSDC Master Catalog

Two Line Element Set (TLE):
1 40386U 15005C   21294.11646089  .00000236  00000-0  11744-3 0  9996
2 40386  50.6979 268.1072 5165614 204.7339 117.7092  5.27291051125525
Source of the keplerian elements: AFSPC